Jaipur, India

4:19 AM IST on September 22, 2017 (GMT +0530)
Jaipur

Weather History for VIJP - February, 2014

Change the Weather History Date:

Thursday, February 6, 2014

  Actual Average Record
Temperature  
Mean Temperature 70 °F -  
Max Temperature 82 °F - - ()
Min Temperature 59 °F - - ()
Cooling Degree Days 6    
Growing Degree Days 20 (Base 50)    
Moisture  
Dew Point 56 °F    
Average Humidity 59    
Maximum Humidity 78    
Minimum Humidity 25    
Precipitation  
Precipitation 0.01 in - - ()
Sea Level Pressure  
Sea Level Pressure 29.86 in    
Wind  
Wind Speed 6 mph ()    
Max Wind Speed 10 mph    
Max Gust Speed -    
Visibility 1.8 miles    
Events Thunderstorm    
T = Trace of Precipitation, MM = Missing Value Source: Averaged Metar Reports

Daily Weather History Graph

Daily Weather History Graph

Search for Another Location

Airport or City:

Trip Planner

Search our weather history database for the weather conditions in past years. The results will help you decide how hot, cold, wet, or windy it might be!

Date:

Astronomy

Feb. 06, 2014 Rise Set
Actual Time 7:09 AM IST 6:12 PM IST
Civil Twilight 6:45 AM IST 6:36 PM IST
Nautical Twilight 6:17 AM IST 7:04 PM IST
Astronomical Twilight 5:50 AM IST 7:31 PM IST
Moon 11:26 AM IST (2/6) No Moon Set
Length of Visible Light 11h 51m
Length of Day
11h 02m
Waxing Crescent, 44% of the Moon is Illuminated
Feb 6
Waxing Crescent
Feb 7
First Quarter
Feb 15
Full
Feb 22
Last Quarter
Mar 1
New

Hourly Weather History & Observations

Time (IST) Temp. Heat Index Dew Point Humidity Pressure Visibility Wind Dir Wind Speed Gust Speed Precip Events Conditions
12:00 AM 64.4 °F - 55.4 °F 73% 29.92 in 1.6 mi ESE 5.8 mph - N/A   Haze
1:00 AM 66.2 °F - 55.4 °F 68% 29.89 in 1.6 mi ENE 6.9 mph - N/A   Haze
2:00 AM 64.4 °F - 55.4 °F 73% 29.89 in 1.6 mi ENE 6.9 mph - N/A   Haze
2:30 AM 64 °F - 54 °F 61% 29.86 in 1 mi East 6.9 mph - -   Haze
3:00 AM 64.4 °F - 53.6 °F 68% 29.89 in 1.6 mi East 6.9 mph - N/A   Haze
4:00 AM 62.6 °F - 53.6 °F 72% 29.89 in 1.6 mi ENE 6.9 mph - N/A   Haze
5:00 AM 62.6 °F - 53.6 °F 72% 29.86 in 1.6 mi ENE 6.9 mph - N/A   Haze
5:30 AM 63 °F - 53 °F 60% 29.86 in 1 mi ENE 6.9 mph - -   Haze
6:00 AM 62.6 °F - 53.6 °F 72% 29.89 in 1.6 mi East 6.9 mph - N/A   Haze
7:00 AM 62.6 °F - 53.6 °F 72% 29.89 in 1.6 mi East 6.9 mph - N/A   Haze
8:00 AM 62.6 °F - 53.6 °F 72% 29.92 in 1.6 mi East 6.9 mph - N/A   Haze
8:30 AM 63 °F - 53 °F 60% 29.90 in 1 mi East 6.9 mph - -   Haze
9:00 AM 64.4 °F - 53.6 °F 68% 29.95 in 1.6 mi East 9.2 mph - N/A   Haze
11:00 AM 71.6 °F - 57.2 °F 60% 29.95 in 1.9 mi SE 8.1 mph - N/A   Haze
11:30 AM 74 °F - 57 °F 46% 30.04 in 2 mi ESE 2.3 mph - -   Haze
12:00 PM 75.2 °F - 57.2 °F 53% 29.92 in 2.5 mi SE 8.1 mph - N/A   Haze
1:00 PM 77.0 °F - 55.4 °F 47% 29.89 in 2.5 mi South 4.6 mph - N/A   Haze
2:00 PM 78.8 °F - 55.4 °F 44% 29.86 in 2.5 mi Variable 4.6 mph - N/A   Haze
2:30 PM 80 °F - 51 °F 25% 29.77 in 2 mi SSW 5.8 mph - -   Haze
3:00 PM 80.6 °F 80.5 °F 55.4 °F 42% 29.83 in 2.5 mi SW 6.9 mph - N/A   Haze
4:00 PM 80.6 °F 80.5 °F 55.4 °F 42% 29.80 in 2.5 mi South 5.8 mph - N/A   Haze
4:30 PM 78.8 °F - 55.4 °F 44% 29.80 in 2.5 mi South 8.1 mph - N/A   Haze
5:00 PM 78.8 °F - 55.4 °F 44% 29.80 in 2.5 mi SSW 8.1 mph - N/A   Haze
5:30 PM 77 °F - 55 °F 36% 29.75 in 2 mi South 5.8 mph - -   Haze
6:00 PM 77.0 °F - 57.2 °F 50% 29.80 in 2.5 mi South 3.5 mph - N/A   Haze
7:00 PM 75.2 °F - 57.2 °F 53% 29.80 in 2.2 mi Variable 2.3 mph - N/A   Haze
8:00 PM 71.6 °F - 59.0 °F 64% 29.83 in 1.9 mi East 8.1 mph - N/A   Haze
8:30 PM 71 °F - 57 °F 51% 29.78 in 1 mi East 9.2 mph - -   Haze
9:00 PM 69.8 °F - 59.0 °F 68% 29.83 in 1.6 mi East 10.4 mph - N/A   Haze
10:00 PM 68.0 °F - 60.8 °F 78% 29.86 in 1.6 mi ENE 8.1 mph - N/A Thunderstorm Thunderstorm
11:00 PM 68.0 °F - 59.0 °F 73% 29.86 in 1.6 mi East 9.2 mph - N/A   Scattered Clouds
11:30 PM 67 °F - 59 °F 69% 29.80 in 1 mi East 9.2 mph - -   Mist